This demonstration page uses our WeatherBlox Daily Observations layout. Learn more.

Left ArrowRight Arrow

41.86663, -103.66717

Hourly Observations for July 4, 2020

Temp ( °F °C ) Dew Point ( °F °C ) Humidity (%) Winds ( mph kmh ) Pressure ( in mb ) Visibility ( mi km ) Precip ( " mm )
12:53 am 00:53 Clear 73 22.8 54 12.2 51 51 S 8 13 29.94 1014 10 16 N/A
1:53 am 01:53 Clear 69 20.6 56 13.3 63 63 SE 10 17 29.96 1014 10 16 N/A
2:53 am 02:53 Clear 69 20.6 55 12.8 61 61 N N/A 29.94 1014 10 16 N/A
3:53 am 03:53 Clear 70 21.1 53 11.7 55 55 VRB 3 6 29.95 1014 10 16 N/A
4:53 am 04:53 Clear 69 20.6 54 12.2 59 59 WSW 8 13 29.93 1013 10 16 N/A
5:53 am 05:53 Sunny 69 20.6 55 12.8 61 61 undefined N/A 29.91 1013 10 16 N/A
6:53 am 06:53 Sunny 70 21.1 57 13.9 64 64 E 5 7 29.92 1013 10 16 N/A
7:53 am 07:53 Sunny 73 22.8 58 14.4 59 59 SE 9 15 29.92 1013 10 16 N/A
8:53 am 08:53 Sunny 76 24.4 58 14.4 54 54 SSW 3 6 29.94 1014 10 16 N/A
9:53 am 09:53 Sunny 78 25.6 59 15 52 52 ESE 7 11 29.94 1014 10 16 N/A
10:53 am 10:53 Sunny 82 27.8 60 15.6 47 47 S 6 9 29.94 1014 10 16 N/A
11:53 am 11:53 Sunny 85 29.4 59 15 42 42 VRB 5 7 29.96 1014 10 16 N/A
12:53 pm 12:53 Sunny 89 31.7 61 16.1 39 39 E 7 11 29.90 1013 10 16 N/A
1:53 pm 13:53 Sunny 95 35 53 11.7 24 24 SSE 13 20 29.87 1012 10 16 N/A
2:53 pm 14:53 Sunny 96 35.6 53 11.7 23 23 SE 20 31 29.86 1011 10 16 N/A
3:53 pm 15:53 Sunny 95 35 52 11.1 23 23 S 15 24 29.84 1011 10 16 N/A
4:53 pm 16:53 Sunny 94 34.4 51 10.6 23 23 SSE 17 28 29.84 1011 10 16 N/A
5:53 pm 17:53 Sunny 92 33.3 51 10.6 25 25 SSE 14 22 29.83 1010 10 16 N/A
6:53 pm 18:53 Sunny 87 30.6 53 11.7 31 31 SSE 12 19 29.85 1011 10 16 N/A
7:53 pm 19:53 Sunny 81 27.2 58 14.4 45 45 E 7 11 29.87 1012 10 16 N/A
8:53 pm 20:53 Clear 78 25.6 56 13.3 47 47 SE 7 11 29.89 1012 10 16 N/A
9:53 pm 21:53 Clear 77 25 55 12.8 47 47 SSW 8 13 29.90 1012 10 16 N/A
10:53 pm 22:53 Clear 74 23.3 54 12.2 50 50 S 6 9 29.91 1013 10 16 N/A
11:53 pm 23:53 Clear 71 21.7 54 12.2 55 55 E 6 9 29.92 1013 10 16 N/A

Powered by AerisWeather